Teterboro, NJ

10:44 AM EDT on June 26, 2017 (GMT -0400)
Teterboro

Weather History for KTEB - May, 2012

Change the Weather History Date:

Monday, May 14, 2012

  Actual Average Record
Temperature  
Mean Temperature 68 °F -  
Max Temperature 71 °F 69 °F 81 °F (2004)
Min Temperature 64 °F 48 °F 39 °F (2013)
Cooling Degree Days 2    
Growing Degree Days 18 (Base 50)    
Moisture  
Dew Point 56 °F    
Average Humidity 69    
Maximum Humidity 84    
Minimum Humidity 53    
Precipitation  
Precipitation 0.06 in - - ()
Sea Level Pressure  
Sea Level Pressure 30.11 in    
Wind  
Wind Speed 6 mph (SSW)    
Max Wind Speed 14 mph    
Max Gust Speed 21 mph    
Visibility 10 miles    
Events Rain    
Averages and records for this station are not official NWS values.
T = Trace of Precipitation, MM = Missing Value Source: NWS Daily Summary

Daily Weather History Graph

Daily Weather History Graph

Search for Another Location

Airport or City:

Trip Planner

Search our weather history database for the weather conditions in past years. The results will help you decide how hot, cold, wet, or windy it might be!

Date:

Astronomy

May. 14, 2012 Rise Set
Actual Time 5:39 AM EDT 8:06 PM EDT
Civil Twilight 5:08 AM EDT 8:37 PM EDT
Nautical Twilight 4:29 AM EDT 9:16 PM EDT
Astronomical Twilight 3:46 AM EDT 9:59 PM EDT
Moon 2:14 AM EDT (5/14) 2:22 PM EDT (5/14)
Length of Visible Light 15h 29m
Length of Day
14h 27m
Waning Crescent, 33% of the Moon is Illuminated
May 14
Waning Crescent
May 20
New
May 28
First Quarter
Jun 4
Full
Jun 11
Last Quarter

Hourly Weather History & Observations

Time (EDT) Temp. Dew Point Humidity Pressure Visibility Wind Dir Wind Speed Gust Speed Precip Events Conditions
12:51 AM 71.1 °F 55.0 °F 57% 30.09 in 10.0 mi SSW 8.1 mph - N/A   Overcast
1:51 AM 70.0 °F 55.0 °F 59% 30.09 in 10.0 mi SSW 8.1 mph - N/A   Overcast
2:51 AM 70.0 °F 55.9 °F 61% 30.09 in 10.0 mi SSW 8.1 mph - N/A   Overcast
3:51 AM 68.0 °F 57.9 °F 70% 30.09 in 10.0 mi WSW 8.1 mph - 0.01 in   Mostly Cloudy
4:51 AM 66.0 °F 55.9 °F 70% 30.10 in 10.0 mi West 4.6 mph - 0.00 in   Mostly Cloudy
5:51 AM 64.9 °F 55.0 °F 70% 30.11 in 10.0 mi SW 3.5 mph - N/A   Scattered Clouds
6:51 AM 66.9 °F 54.0 °F 63% 30.12 in 10.0 mi Calm Calm - N/A   Partly Cloudy
7:51 AM 66.0 °F 55.9 °F 70% 30.14 in 10.0 mi West 3.5 mph - N/A   Clear
8:51 AM 68.0 °F 54.0 °F 61% 30.14 in 10.0 mi Calm Calm - 0.00 in   Partly Cloudy
9:51 AM 70.0 °F 55.9 °F 61% 30.14 in 10.0 mi South 8.1 mph - N/A   Scattered Clouds
10:51 AM 69.1 °F 57.0 °F 65% 30.14 in 10.0 mi South 10.4 mph - 0.00 in   Overcast
11:51 AM 68.0 °F 59.0 °F 73% 30.15 in 10.0 mi SSW 10.4 mph - 0.00 in Rain Light Rain
12:51 PM 70.0 °F 55.9 °F 61% 30.13 in 10.0 mi SSW 10.4 mph - 0.00 in   Overcast
1:51 PM 69.1 °F 51.1 °F 53% 30.13 in 10.0 mi South 13.8 mph 20.7 mph N/A   Overcast
2:51 PM 66.0 °F 54.0 °F 65% 30.13 in 10.0 mi South 5.8 mph - 0.00 in Rain Light Rain
3:51 PM 64.0 °F 57.0 °F 78% 30.12 in 10.0 mi Calm Calm - 0.00 in Rain Light Rain
4:51 PM 66.0 °F 57.9 °F 75% 30.11 in 10.0 mi Calm Calm - 0.00 in   Overcast
5:51 PM 66.0 °F 57.9 °F 75% 30.10 in 10.0 mi Calm Calm - 0.00 in Rain Light Rain
6:51 PM 66.0 °F 57.0 °F 73% 30.09 in 9.0 mi South 5.8 mph - 0.00 in Rain Light Rain
7:51 PM 64.0 °F 57.9 °F 80% 30.10 in 10.0 mi Calm Calm - 0.05 in Rain Light Rain
8:51 PM 64.0 °F 57.9 °F 80% 30.10 in 10.0 mi Calm Calm - 0.00 in   Overcast
9:51 PM 64.0 °F 59.0 °F 84% 30.11 in 10.0 mi Calm Calm - N/A   Overcast
10:51 PM 64.9 °F 57.9 °F 78% 30.11 in 10.0 mi South 3.5 mph - N/A   Overcast
11:51 PM 64.9 °F 57.0 °F 75% 30.11 in 10.0 mi South 5.8 mph - N/A   Overcast